Location: Alpha Ridge Park
(39.3209°N, 76.9128°W)
Time: 21:06:33
(UTC-04:00)

Transit 2A - Pass Details

Date: 31 May 2019
Orbit: 593 x 966 km, 66.7° (Epoch: 15 June)

Event Time Altitude Azimuth Distance (km) Brightness Sun altitude
Rises 07:00:28 0° 222° (SW) 3,555 8.9 12.8°
Reaches altitude 10° 07:03:00 10° 227° (SW) 2,648 8.3 13.3°
Maximum altitude 07:09:07 53° 303° (WNW) 1,165 6.9 14.4°
Drops below altitude 10° 07:15:22 10° 20° (NNE) 2,702 9.4 15.5°
Sets 07:18:00 0° 26° (NNE) 3,634 10.1 16.0°
